IRIDIUM 86 [+]

Last updated on Fri Aug 17 2018 00:20:51 GMT+0000 (Coordinated Universal Time)

1 25528U 98066B 18228.35218705 .00000139 00000-0 42463-4 0 9999 2 25528 86.4000 172.0573 0002875 68.8632 291.2871 14.34220378 40303
UTC large
Height (km)
Speed (km/s)
/
Latitude / Longitude
Inclination (degrees)
Orbital Period (minutes)
Azimuth
Elevation
Range (km)
Doppler Factor

Next 0 passes for location: London (51.5072 / 0.1276)

Sorry there are no passes over London.